Showing default

YUNHAI 2-1F, 43915

Orbit data source: Space-Track

YUNHAI 2-1F, 43915 is a payload satellite owned by CASC (CN) in LEO that was launched on Sat, 29 Dec 2018 UTC via a CHANG ZHENG 2D/YZ-3 launch vehicle from the Jiuquan Satellite Launch Center, China (JSC). Payload-class satellites include a variety of spacecraft equipped with specific instruments for various scientific and technological missions. These include communications satellites like Starlink; space stations such as the ISS; scientific satellites like the Hubble; Earth observation satellites from companies like Planet Labs, Umbra, and HawkEye 360; GPS; miniature CubeSats for education and research; and military/defense satellites.

Loading next visibility...
Identifier
43915, 2018-112G
Orbit
LEO
Country
Flag of CNCN / PRC
Related business
Manufacturer
DFH Shenzhen
Mission
Operational Defense Meteo Radio Occ.
Bus & Motor
YH-2, Unknown motor
Mass
~100 kg wet, ~100 kg dry
Launch date (UTC)
2018-12-29 (7 years ago)
Launch vehicle
CHANG ZHENG 2D/YZ-3
Launch site
Jiuquan Satellite Launch Center, China (JSC)
Object type
Payload
Rocket body
Debris
Shape & HBR
Box + 2 Pan, 0.5 m
Radar Cross Section
0.166 m², Large (>1 m²)

Expand to show TLE details & history
Last TLE update: 5 hours ago

TLE from 5 hours ago
0 YUNHAI 2-1F
1 43915U 18112G   25310.29580084  .00000650  00000-0  31936-3 0  9998
2 43915  50.0117  93.7037 0006964 263.5511  96.4612 14.28895063356430
Epoch: 2025-11-06T07:05Z
TLE epoch observation values (Epoch: 2025-11-06T07:05:57.192Z)
Latitude
0.00003°
Longitude
-58.54074°
Altitude
796.524 km
Speed
7.456 km/s
True Right ascension
06h 14m 48s
True Declination
0° 00' 00"
Sunlit
Object was in full shadow at epoch
Visualization orbit readout
Latitude
Unknown
Longitude
Unknown
Altitude
Unknown
Speed
Unknown
Apparent Right ascension
Unknown
Apparent Declination
Unknown
Sunlit
N/A
Visualization observer readout
Local Sidereal Time
07:39:23
Azimuth
Unknown
Elevation
Unknown
Doppler factor
Unknown
Orbital elements
Apogee altitude
801.161 km
Perigee altitude
791.168 km
Semi-major axis
7,174.301 km
Eccentricity
0.0007
Inclination
50.0117°
RAAN
93.7037°
Arg. of periapsis
263.5511°
True anomaly
96.54049°
Mean anomaly
96.4612°
Eccentric anomaly
96.50084°
Mean motion
3.57169 °/min
Orbital period
100.79 mins
BSTAR
0.00031936
Loading maneuver chart data...
Computing Atmospheric mass density...
Loading historical data...
Loading historical data...
Loading historical data...
Loading historical data...
Loading historical data...
Loading historical data...
Loading historical data...

Documentation

Showing up to 5 results
|